| time (UTC) | temp F | wind direction | speed MPH | gust MPH | rain 1hr in | rain 24hr in | rain mn in | humidity % | barometer mb |
| 20260831001512 | 72 | 325 | 1.0 | 4.0 | 0.00 | 0.00 | 0.00 | 55 | 1018.8 |
| 20260831000001 | 73 | 301 | 2.0 | 5.0 | 0.00 | 0.00 | 0.00 | 54 | 1018.9 |
| 20260830234606 | 73 | 315 | 1.0 | 5.0 | 0.00 | 0.00 | 0.00 | 55 | 1019.1 |
| 20260830233058 | 73 | 297 | 3.0 | 7.0 | 0.00 | 0.00 | 0.00 | 52 | 1019.1 |
| 20260830231603 | 73 | 300 | 3.0 | 6.0 | 0.00 | 0.00 | 0.00 | 52 | 1019.2 |
| 20260830230054 | 73 | 281 | 3.0 | 6.0 | 0.00 | 0.00 | 0.00 | 54 | 1019.2 |
| 20260830224604 | 73 | 291 | 3.0 | 6.0 | 0.00 | 0.00 | 0.00 | 54 | 1019.4 |
| 20260830223049 | 71 | 317 | 4.0 | 8.0 | 0.00 | 0.00 | 0.00 | 57 | 1019.6 |
| 20260830221546 | 72 | 287 | 4.0 | 9.0 | 0.00 | 0.00 | 0.00 | 57 | 1019.8 |
| 20260830220043 | 71 | 318 | 3.0 | 7.0 | 0.00 | 0.00 | 0.00 | 61 | 1019.9 |
| 20260830214545 | 70 | 306 | 3.0 | 8.0 | 0.00 | 0.00 | 0.00 | 62 | 1020.0 |
| 20260830213039 | 69 | 309 | 4.0 | 7.0 | 0.00 | 0.00 | 0.00 | 64 | 1020.2 |
| 20260830211538 | 69 | 323 | 2.0 | 5.0 | 0.00 | 0.00 | 0.00 | 63 | 1020.5 |
| 20260830210039 | 69 | 347 | 3.0 | 5.0 | 0.00 | 0.00 | 0.00 | 65 | 1020.5 |
| 20260830204538 | 68 | 315 | 3.0 | 6.0 | 0.00 | 0.00 | 0.00 | 67 | 1020.6 |
| 20260830203028 | 66 | 303 | 3.0 | 5.0 | 0.00 | 0.00 | 0.00 | 71 | 1020.7 |
| 20260830201526 | 65 | 304 | 3.0 | 5.0 | 0.00 | 0.00 | 0.00 | 72 | 1020.8 |
| 20260830200021 | 64 | 329 | 2.0 | 4.0 | 0.00 | 0.00 | 0.00 | 74 | 1020.9 |
| 20260830194519 | 64 | 312 | 3.0 | 6.0 | 0.00 | 0.00 | 0.00 | 76 | 1021.0 |
| 20260830193017 | 63 | 308 | 4.0 | 8.0 | 0.00 | 0.00 | 0.00 | 78 | 1021.1 |
| 20260830191514 | 62 | 300 | 5.0 | 8.0 | 0.00 | 0.00 | 0.00 | 80 | 1021.2 |
| 20260830190010 | 61 | 310 | 4.0 | 6.0 | 0.00 | 0.00 | 0.00 | 79 | 1021.1 |
| 20260830184510 | 61 | 329 | 2.0 | 4.0 | 0.00 | 0.00 | 0.00 | 79 | 1021.1 |
| 20260830183009 | 61 | 360 | 2.0 | 5.0 | 0.00 | 0.00 | 0.00 | 80 | 1021.2 |
| 20260830181509 | 61 | 355 | 2.0 | 4.0 | 0.00 | 0.00 | 0.00 | 80 | 1021.3 |
| 20260830180008 | 60 | 314 | 2.0 | 5.0 | 0.00 | 0.00 | 0.00 | 80 | 1021.2 |
| 20260830174505 | 60 | 301 | 3.0 | 6.0 | 0.00 | 0.00 | 0.00 | 81 | 1021.2 |
| 20260830173002 | 60 | 300 | 4.0 | 6.0 | 0.00 | 0.00 | 0.00 | 81 | 1021.2 |
| 20260830171501 | 60 | 306 | 4.0 | 6.0 | 0.00 | 0.00 | 0.00 | 82 | 1021.1 |
| 20260830170059 | 59 | 178 | 2.0 | 6.0 | 0.00 | 0.00 | 0.00 | 81 | 1021.0 |
| 20260830164559 | 58 | 237 | 2.0 | 7.0 | 0.00 | 0.00 | 0.00 | 82 | 1021.0 |
| 20260830163100 | 58 | 222 | 3.0 | 5.0 | 0.00 | 0.00 | 0.00 | 82 | 1021.0 |
| 20260830161623 | 58 | 242 | 3.0 | 8.0 | 0.00 | 0.00 | 0.00 | 82 | 1021.0 |
| 20260830160053 | 58 | 207 | 2.0 | 7.0 | 0.00 | 0.00 | 0.00 | 83 | 1021.2 |
| 20260830154553 | 57 | 174 | 2.0 | 8.0 | 0.00 | 0.00 | 0.00 | 82 | 1021.1 |
| 20260830153052 | 57 | 198 | 4.0 | 7.0 | 0.00 | 0.00 | 0.00 | 82 | 1021.1 |
| 20260830151551 | 57 | 146 | 3.0 | 7.0 | 0.00 | 0.00 | 0.00 | 82 | 1021.0 |
| 20260830150108 | 56 | 167 | 3.0 | 5.0 | 0.00 | 0.00 | 0.00 | 82 | 1021.1 |
| 20260830144549 | 56 | 150 | 2.0 | 7.0 | 0.00 | 0.20 | 0.00 | 83 | 1021.0 |
| 20260830143049 | 56 | 171 | 0.0 | 4.0 | 0.00 | 0.20 | 0.00 | 84 | 1020.9 |
| 20260830141546 | 55 | 162 | 1.0 | 5.0 | 0.00 | 0.20 | 0.00 | 84 | 1020.6 |
| 20260830140044 | 55 | 142 | 1.0 | 5.0 | 0.00 | 0.20 | 0.00 | 85 | 1020.5 |
| 20260830134545 | 55 | 155 | 1.0 | 3.0 | 0.00 | 0.24 | 0.00 | 85 | 1020.5 |
| 20260830133042 | 55 | 158 | 3.0 | 6.0 | 0.00 | 0.24 | 0.00 | 85 | 1020.5 |
| 20260830131551 | 55 | 157 | 4.0 | 7.0 | 0.00 | 0.24 | 0.00 | 85 | 1020.5 |
| 20260830130044 | 55 | 151 | 4.0 | 8.0 | 0.00 | 0.24 | 0.00 | 85 | 1020.4 |
| 20260830124540 | 55 | 142 | 5.0 | 8.0 | 0.00 | 0.24 | 0.00 | 86 | 1020.4 |
| 20260830123039 | 55 | 167 | 5.0 | 8.0 | 0.00 | 0.24 | 0.00 | 86 | 1020.4 |
| 20260830121539 | 55 | 154 | 4.0 | 7.0 | 0.00 | 0.24 | 0.00 | 86 | 1020.5 |
| 20260830120037 | 55 | 152 | 4.0 | 7.0 | 0.00 | 0.24 | 0.00 | 85 | 1020.5 |
| 20260830114542 | 55 | 149 | 4.0 | 7.0 | 0.00 | 0.24 | 0.00 | 85 | 1020.5 |
| 20260830113033 | 55 | 161 | 5.0 | 8.0 | 0.00 | 0.24 | 0.00 | 85 | 1020.4 |
| 20260830111533 | 55 | 148 | 4.0 | 9.0 | 0.00 | 0.24 | 0.00 | 86 | 1020.1 |
| 20260830110031 | 55 | 159 | 4.0 | 9.0 | 0.00 | 0.24 | 0.00 | 86 | 1020.3 |
| 20260830104530 | 55 | 158 | 4.0 | 9.0 | 0.00 | 0.24 | 0.00 | 86 | 1020.3 |
| 20260830103029 | 55 | 164 | 5.0 | 8.0 | 0.00 | 0.24 | 0.00 | 86 | 1020.4 |
| 20260830101527 | 55 | 123 | 5.0 | 8.0 | 0.00 | 0.24 | 0.00 | 86 | 1020.4 |
| 20260830100026 | 55 | 147 | 4.0 | 9.0 | 0.00 | 0.24 | 0.00 | 86 | 1020.2 |
| 20260830094525 | 55 | 148 | 4.0 | 8.0 | 0.00 | 0.24 | 0.00 | 86 | 1020.1 |
| 20260830093023 | 55 | 160 | 4.0 | 8.0 | 0.00 | 0.24 | 0.00 | 86 | 1020.1 |
| 20260830091538 | 55 | 148 | 5.0 | 9.0 | 0.00 | 0.24 | 0.00 | 86 | 1020.1 |
| 20260830090021 | 55 | 134 | 6.0 | 9.0 | 0.00 | 0.24 | 0.00 | 86 | 1020.2 |
| 20260830084519 | 55 | 143 | 4.0 | 8.0 | 0.00 | 0.24 | 0.00 | 85 | 1020.2 |
| 20260830083018 | 55 | 143 | 4.0 | 7.0 | 0.00 | 0.24 | 0.00 | 84 | 1020.1 |
| 20260830081518 | 56 | 149 | 3.0 | 5.0 | 0.00 | 0.24 | 0.00 | 83 | 1020.1 |
| 20260830080013 | 56 | 136 | 4.0 | 8.0 | 0.00 | 0.24 | 0.00 | 82 | 1020.0 |
| 20260830074520 | 57 | 142 | 4.0 | 8.0 | 0.00 | 0.24 | 0.00 | 81 | 1020.0 |
| 20260830073007 | 57 | 150 | 3.0 | 9.0 | 0.00 | 0.24 | 0.00 | 81 | 1020.0 |
| 20260830071505 | 57 | 172 | 5.0 | 9.0 | 0.00 | 0.24 | 0.00 | 80 | 1019.8 |
| 20260830070000 | 58 | 155 | 3.0 | 6.0 | 0.00 | 0.24 | 0.24 | 79 | 1019.9 |
| 20260830064633 | 58 | 207 | 6.0 | 9.0 | 0.00 | 0.24 | 0.24 | 79 | 1019.8 |
| 20260830063100 | 59 | 192 | 2.0 | 6.0 | 0.00 | 0.24 | 0.24 | 78 | 1019.8 |
| 20260830061625 | 59 | 178 | 2.0 | 6.0 | 0.00 | 0.24 | 0.24 | 77 | 1019.8 |
| 20260830060059 | 59 | 182 | 5.0 | 10.0 | 0.00 | 0.24 | 0.24 | 76 | 1019.9 |
| 20260830054603 | 60 | 223 | 4.0 | 13.0 | 0.00 | 0.24 | 0.24 | 75 | 1019.8 |
| 20260830053057 | 60 | 225 | 4.0 | 10.0 | 0.00 | 0.24 | 0.24 | 74 | 1019.8 |
| 20260830051557 | 60 | 231 | 5.0 | 9.0 | 0.00 | 0.24 | 0.24 | 73 | 1019.7 |
| 20260830050055 | 61 | 234 | 6.0 | 11.0 | 0.00 | 0.24 | 0.24 | 72 | 1019.6 |
| 20260830044611 | 61 | 215 | 5.0 | 12.0 | 0.00 | 0.24 | 0.24 | 71 | 1019.6 |
| 20260830043052 | 61 | 242 | 3.0 | 8.0 | 0.00 | 0.24 | 0.24 | 70 | 1019.5 |
| 20260830041617 | 62 | 194 | 5.0 | 11.0 | 0.00 | 0.24 | 0.24 | 68 | 1019.4 |
| 20260830040101 | 62 | 209 | 5.0 | 13.0 | 0.00 | 0.24 | 0.24 | 67 | 1019.1 |
| 20260830034547 | 63 | 236 | 6.0 | 13.0 | 0.00 | 0.24 | 0.24 | 66 | 1018.9 |
| 20260830033045 | 63 | 243 | 6.0 | 11.0 | 0.00 | 0.24 | 0.24 | 64 | 1018.7 |
| 20260830031544 | 64 | 231 | 4.0 | 13.0 | 0.00 | 0.24 | 0.24 | 63 | 1018.5 |
| 20260830030050 | 64 | 209 | 5.0 | 13.0 | 0.00 | 0.24 | 0.24 | 61 | 1018.4 |
| 20260830024541 | 64 | 211 | 7.0 | 13.0 | 0.00 | 0.24 | 0.24 | 60 | 1018.3 |
| 20260830023042 | 65 | 217 | 4.0 | 15.0 | 0.00 | 0.24 | 0.24 | 59 | 1018.1 |
| 20260830021540 | 66 | 244 | 7.0 | 15.0 | 0.00 | 0.24 | 0.24 | 57 | 1018.0 |
| 20260830020042 | 66 | 215 | 6.0 | 16.0 | 0.00 | 0.24 | 0.24 | 56 | 1018.0 |
| 20260830014541 | 66 | 243 | 8.0 | 15.0 | 0.00 | 0.24 | 0.24 | 56 | 1017.8 |
| 20260830013048 | 66 | 173 | 8.0 | 17.0 | 0.00 | 0.24 | 0.24 | 56 | 1017.9 |
| 20260830011536 | 67 | 272 | 5.0 | 11.0 | 0.00 | 0.24 | 0.24 | 58 | 1017.9 |
| 20260830010036 | 67 | 267 | 6.0 | 14.0 | 0.00 | 0.24 | 0.24 | 57 | 1018.0 |
| 20260830004537 | 67 | 240 | 9.0 | 17.0 | 0.00 | 0.24 | 0.24 | 57 | 1017.9 |
| 20260830003034 | 68 | 234 | 4.0 | 12.0 | 0.00 | 0.24 | 0.24 | 58 | 1017.9 |